Location: Newark
(50.5930°N, 3.6720°W)
Time: 03:59:01
(UTC+00:00)

Envisat - Pass Details

Date: 31 August 2019
Orbit: 764 x 766 km, 98.1° (Epoch: 15 September)

Event Time Altitude Azimuth Distance (km) Brightness Sun altitude
Rises 20:08:04 0° 225° (SW) 3,224 6.5 -10.5°
Reaches altitude 10° 20:12:26 10° 262° (W) 2,306 6.3 -11.2°
Maximum altitude 20:13:45 11° 277° (W) 2,245 6.6 -11.3°
Drops below altitude 10° 20:15:03 10° 292° (WNW) 2,310 7.0 -11.5°
Sets 20:19:28 0° 328° (NNW) 3,244 7.4 -12.1°
